DLH648 UAAA-UACC

Flight info

Callsign DLH648
Flight time 1h 24m
Altitude 40000
Route ETEDA1B ETEDA W333 BANOS BANOS1D
Aircraft A346/H-SDE2E3FGHIJ3J4J5M1P2RWXYZ/LB1D1

Departure

Time 2026-05-05 06:46
Airport Almaty International Airport (UAAA)

Arrival

Time 2026-05-05 08:11
Airport Nursultan Nazarbayev International Airport (UACC)
Time Latitude Longitude Altitude Speed Heading
2026-05-05 06:18 43.34725 77.01270 2241 ft 0 kts 244°
2026-05-05 06:36 43.34727 77.01278 2239 ft 4 kts 244°
2026-05-05 06:36 43.34739 77.01310 2239 ft 4 kts 241°
2026-05-05 06:36 43.34752 77.01343 2237 ft 4 kts 240°
2026-05-05 06:37 43.34766 77.01375 2240 ft 4 kts 238°
2026-05-05 06:37 43.34780 77.01405 2233 ft 2 kts 237°
2026-05-05 06:37 43.34781 77.01407 2233 ft 0 kts 237°
2026-05-05 06:40 43.34778 77.01401 2240 ft 1 kts 236°
2026-05-05 06:40 43.34766 77.01390 2234 ft 3 kts 199°
2026-05-05 06:41 43.34733 77.01389 2235 ft 8 kts 173°
2026-05-05 06:41 43.34663 77.01418 2236 ft 12 kts 160°
2026-05-05 06:41 43.34574 77.01470 2234 ft 15 kts 156°
2026-05-05 06:41 43.34466 77.01535 2236 ft 18 kts 156°
2026-05-05 06:42 43.34341 77.01611 2234 ft 21 kts 156°
2026-05-05 06:42 43.34274 77.01652 2238 ft 0 kts 155°
2026-05-05 06:44 43.34263 77.01660 2237 ft 5 kts 154°
2026-05-05 06:45 43.34213 77.01695 2233 ft 10 kts 152°
2026-05-05 06:45 43.34150 77.01766 2239 ft 13 kts 116°
2026-05-05 06:45 43.34165 77.01841 2234 ft 0 kts 55°
2026-05-05 06:45 43.34237 77.01984 2231 ft 52 kts 55°
2026-05-05 06:46 43.34576 77.02665 2241 ft 119 kts 56°
2026-05-05 06:46 43.35157 77.03830 2250 ft 173 kts 56°
2026-05-05 06:46 43.35862 77.05250 2880 ft 176 kts 56°
2026-05-05 06:46 43.36551 77.06640 3660 ft 177 kts 54°
2026-05-05 06:47 43.37273 77.08034 4331 ft 183 kts 53°
2026-05-05 06:47 43.38050 77.09515 4803 ft 199 kts 53°
2026-05-05 06:47 43.38896 77.11127 5232 ft 216 kts 53°
2026-05-05 06:47 43.39808 77.12870 5659 ft 233 kts 54°
2026-05-05 06:48 43.40794 77.14761 6055 ft 254 kts 53°
2026-05-05 06:48 43.42093 77.16514 6525 ft 272 kts 30°
2026-05-05 06:48 43.43923 77.17236 7188 ft 280 kts
2026-05-05 06:48 43.45815 77.16614 8025 ft 284 kts 334°
2026-05-05 06:49 43.47565 77.15298 8651 ft 288 kts 331°
2026-05-05 06:49 43.49310 77.13932 8956 ft 290 kts 331°
2026-05-05 06:49 43.51071 77.12562 8976 ft 291 kts 332°
2026-05-05 06:49 43.52802 77.11118 8965 ft 292 kts 320°
2026-05-05 06:50 43.54007 77.08895 8967 ft 295 kts 291°
2026-05-05 06:50 43.54361 77.06103 9407 ft 306 kts 272°
2026-05-05 06:50 43.54439 77.03181 10557 ft 303 kts 272°
2026-05-05 06:50 43.54526 77.00235 11382 ft 315 kts 272°
2026-05-05 06:51 43.54734 76.97143 11926 ft 335 kts 282°
2026-05-05 06:51 43.55624 76.94084 12424 ft 354 kts 302°
2026-05-05 06:51 43.57223 76.91388 12934 ft 372 kts 315°
2026-05-05 06:51 43.59075 76.88793 13633 ft 385 kts 316°
2026-05-05 06:52 43.60985 76.86157 14435 ft 391 kts 316°
2026-05-05 06:52 43.62908 76.83473 15313 ft 394 kts 316°
2026-05-05 06:52 43.64838 76.80749 16216 ft 398 kts 316°
2026-05-05 06:52 43.66781 76.77984 17078 ft 403 kts 316°
2026-05-05 06:53 43.68742 76.75179 17950 ft 408 kts 316°
2026-05-05 06:53 43.70723 76.72338 18751 ft 412 kts 316°
2026-05-05 06:53 43.72730 76.69460 19546 ft 415 kts 316°
2026-05-05 06:53 43.74741 76.66570 20365 ft 417 kts 315°
2026-05-05 06:54 43.76720 76.63608 21191 ft 420 kts 313°
2026-05-05 06:54 43.78680 76.60590 22018 ft 423 kts 313°
2026-05-05 06:54 43.80648 76.57549 22825 ft 425 kts 313°
2026-05-05 06:54 43.82630 76.54492 23601 ft 429 kts 314°
2026-05-05 06:55 43.84663 76.51439 24204 ft 433 kts 317°
2026-05-05 06:55 43.87123 76.49024 24772 ft 434 kts 335°
2026-05-05 06:55 43.89987 76.47780 25490 ft 433 kts 352°
2026-05-05 06:55 43.93003 76.47767 26149 ft 435 kts
2026-05-05 06:56 43.95909 76.48964 26766 ft 438 kts 21°
2026-05-05 06:56 43.98694 76.50549 27395 ft 441 kts 22°
2026-05-05 06:56 44.01541 76.52186 27946 ft 446 kts 23°
2026-05-05 06:56 44.04423 76.53820 28552 ft 449 kts 23°
2026-05-05 06:57 44.07326 76.55457 29200 ft 451 kts 22°
2026-05-05 06:57 44.10317 76.56849 29785 ft 456 kts 16°
2026-05-05 06:57 44.13438 76.57747 30288 ft 461 kts
2026-05-05 06:57 44.16648 76.58115 30745 ft 465 kts
2026-05-05 06:58 44.19886 76.57934 31315 ft 466 kts 354°
2026-05-05 06:58 44.23075 76.57208 32049 ft 463 kts 348°
2026-05-05 06:58 44.26194 76.56194 32861 ft 458 kts 347°
2026-05-05 06:58 44.29272 76.55127 33702 ft 453 kts 346°
2026-05-05 06:59 44.32305 76.53981 34382 ft 451 kts 343°
2026-05-05 06:59 44.35285 76.52630 34937 ft 450 kts 340°
2026-05-05 06:59 44.38202 76.51070 35480 ft 448 kts 338°
2026-05-05 06:59 44.41083 76.49407 35987 ft 448 kts 337°
2026-05-05 07:00 44.43953 76.47723 36504 ft 446 kts 337°
2026-05-05 07:00 44.46808 76.46042 37044 ft 444 kts 336°
2026-05-05 07:00 44.49657 76.44365 37488 ft 444 kts 336°
2026-05-05 07:00 44.52469 76.42711 37884 ft 444 kts 336°
2026-05-05 07:01 44.55322 76.41033 38280 ft 444 kts 336°
2026-05-05 07:01 44.58176 76.39355 38667 ft 445 kts 336°
2026-05-05 07:01 44.61033 76.37675 38938 ft 446 kts 336°
2026-05-05 07:01 44.63891 76.35992 39164 ft 447 kts 336°
2026-05-05 07:02 44.66765 76.34297 39377 ft 449 kts 336°
2026-05-05 07:02 44.69652 76.32595 39569 ft 451 kts 336°
2026-05-05 07:02 44.72548 76.30884 39774 ft 452 kts 336°
2026-05-05 07:02 44.75452 76.29167 39983 ft 453 kts 336°
2026-05-05 07:03 44.78364 76.27444 40061 ft 454 kts 336°
2026-05-05 07:03 44.83210 76.24571 40067 ft 454 kts 336°
2026-05-05 07:04 44.89033 76.21114 40076 ft 454 kts 336°
2026-05-05 07:04 44.94860 76.17646 40084 ft 454 kts 336°
2026-05-05 07:05 45.00673 76.14180 40081 ft 454 kts 336°
2026-05-05 07:05 45.06487 76.10705 40084 ft 454 kts 336°
2026-05-05 07:06 45.12298 76.07224 40090 ft 453 kts 336°
2026-05-05 07:06 45.18103 76.03738 40090 ft 453 kts 336°
2026-05-05 07:07 45.23903 76.00249 40092 ft 453 kts 336°
2026-05-05 07:07 45.29698 75.96755 40090 ft 453 kts 336°
2026-05-05 07:08 45.35498 75.93248 40089 ft 453 kts 336°
2026-05-05 07:08 45.41295 75.89738 40097 ft 453 kts 336°
2026-05-05 07:09 45.47096 75.86216 40097 ft 453 kts 336°
2026-05-05 07:09 45.52898 75.82687 40102 ft 453 kts 336°
2026-05-05 07:10 45.58697 75.79151 40105 ft 453 kts 336°
2026-05-05 07:10 45.64493 75.75608 40108 ft 453 kts 336°
2026-05-05 07:11 45.70248 75.72083 40112 ft 453 kts 335°
2026-05-05 07:11 45.76070 75.68509 40107 ft 452 kts 335°
2026-05-05 07:12 45.81818 75.64974 40112 ft 452 kts 335°
2026-05-05 07:12 45.87604 75.61409 40112 ft 452 kts 335°
2026-05-05 07:13 45.93386 75.57837 40117 ft 452 kts 335°
2026-05-05 07:13 45.99169 75.54257 40118 ft 452 kts 335°
2026-05-05 07:14 46.04942 75.50674 40120 ft 452 kts 335°
2026-05-05 07:14 46.10719 75.47082 40125 ft 452 kts 335°
2026-05-05 07:15 46.16493 75.43482 40124 ft 452 kts 335°
2026-05-05 07:15 46.22259 75.39879 40124 ft 452 kts 335°
2026-05-05 07:16 46.28038 75.36286 40130 ft 452 kts 335°
2026-05-05 07:16 46.33817 75.32693 40129 ft 452 kts 335°
2026-05-05 07:17 46.39594 75.29091 40130 ft 452 kts 335°
2026-05-05 07:17 46.45369 75.25482 40139 ft 452 kts 335°
2026-05-05 07:18 46.51136 75.21868 40141 ft 451 kts 335°
2026-05-05 07:18 46.56896 75.18250 40141 ft 451 kts 335°
2026-05-05 07:19 46.62660 75.14621 40152 ft 451 kts 335°
2026-05-05 07:19 46.68417 75.10989 40147 ft 451 kts 335°
2026-05-05 07:20 46.74170 75.07351 40147 ft 450 kts 335°
2026-05-05 07:20 46.79883 75.03729 40149 ft 450 kts 335°
2026-05-05 07:21 46.85624 75.00081 40150 ft 450 kts 335°
2026-05-05 07:21 46.91414 74.96641 40139 ft 450 kts 338°
2026-05-05 07:22 46.97275 74.93421 40137 ft 450 kts 338°
2026-05-05 07:22 47.03128 74.90205 40138 ft 450 kts 338°
2026-05-05 07:23 47.08983 74.86972 40137 ft 449 kts 338°
2026-05-05 07:23 47.14828 74.83735 40136 ft 449 kts 338°
2026-05-05 07:24 47.20677 74.80486 40135 ft 449 kts 338°
2026-05-05 07:24 47.26524 74.77232 40139 ft 449 kts 338°
2026-05-05 07:25 47.32365 74.73972 40137 ft 449 kts 338°
2026-05-05 07:25 47.38205 74.70705 40136 ft 449 kts 338°
2026-05-05 07:26 47.44043 74.67433 40135 ft 448 kts 338°
2026-05-05 07:26 47.49876 74.64153 40134 ft 448 kts 338°
2026-05-05 07:27 47.55708 74.60870 40136 ft 448 kts 338°
2026-05-05 07:27 47.61539 74.57605 40140 ft 448 kts 338°
2026-05-05 07:28 47.67343 74.54350 40138 ft 448 kts 338°
2026-05-05 07:28 47.73171 74.51070 40136 ft 448 kts 338°
2026-05-05 07:29 47.79004 74.47780 40134 ft 448 kts 338°
2026-05-05 07:29 47.84848 74.44477 40135 ft 448 kts 337°
2026-05-05 07:30 47.90677 74.41172 40134 ft 448 kts 337°
2026-05-05 07:30 47.99411 74.36206 40133 ft 448 kts 337°
2026-05-05 07:31 48.05228 74.32891 40134 ft 448 kts 337°
2026-05-05 07:31 48.11050 74.29561 40131 ft 448 kts 337°
2026-05-05 07:32 48.16874 74.26242 40132 ft 448 kts 337°
2026-05-05 07:32 48.22700 74.22948 40130 ft 448 kts 337°
2026-05-05 07:33 48.28530 74.19643 40131 ft 448 kts 337°
2026-05-05 07:33 48.34360 74.16327 40131 ft 448 kts 337°
2026-05-05 07:34 48.40189 74.13003 40127 ft 448 kts 337°
2026-05-05 07:34 48.46017 74.09674 40131 ft 448 kts 337°
2026-05-05 07:35 48.51832 74.06340 40129 ft 447 kts 337°
2026-05-05 07:35 48.57614 74.03017 40129 ft 447 kts 337°
2026-05-05 07:36 48.63432 73.99666 40134 ft 447 kts 337°
2026-05-05 07:36 48.69283 73.96290 40123 ft 447 kts 336°
2026-05-05 07:37 48.75097 73.92923 40125 ft 447 kts 336°
2026-05-05 07:37 48.80912 73.89548 40120 ft 447 kts 336°
2026-05-05 07:38 48.86726 73.86169 40122 ft 447 kts 336°
2026-05-05 07:38 48.92494 73.82805 40120 ft 447 kts 336°
2026-05-05 07:39 48.98309 73.79403 40117 ft 447 kts 336°
2026-05-05 07:39 49.04112 73.75990 40114 ft 447 kts 336°
2026-05-05 07:40 49.09913 73.72568 40115 ft 447 kts 336°
2026-05-05 07:40 49.15718 73.69132 40112 ft 447 kts 336°
2026-05-05 07:41 49.21523 73.65687 40108 ft 447 kts 336°
2026-05-05 07:41 49.27329 73.62237 40109 ft 448 kts 336°
2026-05-05 07:42 49.33136 73.58775 40106 ft 448 kts 336°
2026-05-05 07:42 49.36041 73.57039 39927 ft 448 kts 336°
2026-05-05 07:42 49.38938 73.55308 39690 ft 445 kts 336°
2026-05-05 07:43 49.41817 73.53585 39455 ft 442 kts 336°
2026-05-05 07:43 49.44676 73.51872 39211 ft 440 kts 335°
2026-05-05 07:43 49.47518 73.50167 38956 ft 437 kts 335°
2026-05-05 07:43 49.50349 73.48468 38590 ft 436 kts 335°
2026-05-05 07:44 49.53134 73.46791 38070 ft 437 kts 335°
2026-05-05 07:44 49.55964 73.45083 37506 ft 437 kts 335°
2026-05-05 07:44 49.58797 73.43373 36923 ft 437 kts 335°
2026-05-05 07:44 49.61605 73.41571 36306 ft 437 kts 332°
2026-05-05 07:45 49.64346 73.39530 35676 ft 438 kts 329°
2026-05-05 07:45 49.67013 73.37246 35029 ft 439 kts 326°
2026-05-05 07:45 49.69600 73.34723 34393 ft 440 kts 323°
2026-05-05 07:45 49.72100 73.31957 33678 ft 442 kts 319°
2026-05-05 07:46 49.74494 73.28967 33001 ft 442 kts 316°
2026-05-05 07:46 49.76781 73.25793 32386 ft 441 kts 314°
2026-05-05 07:46 49.79023 73.22572 31792 ft 440 kts 314°
2026-05-05 07:46 49.81265 73.19325 31211 ft 440 kts 314°
2026-05-05 07:47 49.83499 73.16085 30611 ft 439 kts 314°
2026-05-05 07:47 49.85730 73.12849 30038 ft 438 kts 314°
2026-05-05 07:47 49.87961 73.09615 29641 ft 438 kts 314°
2026-05-05 07:47 49.90182 73.06397 29204 ft 435 kts 313°
2026-05-05 07:48 49.92387 73.03196 28762 ft 432 kts 313°
2026-05-05 07:48 49.94574 73.00015 28345 ft 429 kts 313°
2026-05-05 07:48 49.96740 72.96861 27914 ft 426 kts 313°
2026-05-05 07:48 49.98891 72.93725 27477 ft 423 kts 313°
2026-05-05 07:49 50.01029 72.90605 27050 ft 420 kts 313°
2026-05-05 07:49 50.03154 72.87502 26563 ft 418 kts 313°
2026-05-05 07:49 50.05270 72.84407 25997 ft 417 kts 313°
2026-05-05 07:49 50.07384 72.81308 25430 ft 417 kts 313°
2026-05-05 07:50 50.09499 72.78204 24837 ft 417 kts 313°
2026-05-05 07:50 50.11604 72.75112 24347 ft 414 kts 313°
2026-05-05 07:50 50.13692 72.72041 23885 ft 411 kts 313°
2026-05-05 07:50 50.15764 72.68990 23395 ft 408 kts 313°
2026-05-05 07:51 50.17914 72.66122 22899 ft 407 kts 318°
2026-05-05 07:51 50.20230 72.63600 22437 ft 405 kts 323°
2026-05-05 07:51 50.22679 72.61438 21991 ft 403 kts 328°
2026-05-05 07:51 50.25136 72.59478 21553 ft 400 kts 329°
2026-05-05 07:52 50.27647 72.57512 21122 ft 397 kts 329°
2026-05-05 07:52 50.30073 72.55614 20697 ft 393 kts 329°
2026-05-05 07:52 50.32513 72.53695 20223 ft 391 kts 329°
2026-05-05 07:52 50.34938 72.51781 19799 ft 389 kts 329°
2026-05-05 07:53 50.37347 72.49874 19382 ft 387 kts 329°
2026-05-05 07:53 50.39744 72.47973 18940 ft 385 kts 329°
2026-05-05 07:53 50.42127 72.46079 18522 ft 383 kts 329°
2026-05-05 07:53 50.44499 72.44192 18071 ft 381 kts 329°
2026-05-05 07:54 50.46858 72.42315 17622 ft 379 kts 329°
2026-05-05 07:54 50.48396 72.41091 17493 ft 371 kts 329°
2026-05-05 07:54 50.50656 72.39294 17420 ft 357 kts 329°
2026-05-05 07:54 50.52829 72.37560 17329 ft 344 kts 328°
2026-05-05 07:55 50.54924 72.35884 17217 ft 332 kts 328°
2026-05-05 07:55 50.56944 72.34267 17092 ft 320 kts 328°
2026-05-05 07:55 50.58895 72.32703 16989 ft 310 kts 328°
2026-05-05 07:55 50.60823 72.31153 16564 ft 312 kts 328°
2026-05-05 07:56 50.62764 72.29589 16135 ft 314 kts 328°
2026-05-05 07:56 50.64711 72.28021 15717 ft 315 kts 328°
2026-05-05 07:56 50.66661 72.26449 15311 ft 315 kts 328°
2026-05-05 07:56 50.68615 72.24876 14935 ft 315 kts 327°
2026-05-05 07:57 50.70572 72.23299 14519 ft 316 kts 327°
2026-05-05 07:57 50.72530 72.21718 14123 ft 316 kts 327°
2026-05-05 07:57 50.74489 72.20136 13717 ft 316 kts 327°
2026-05-05 07:57 50.76430 72.18569 13420 ft 311 kts 327°
2026-05-05 07:58 50.78344 72.17020 13053 ft 308 kts 327°
2026-05-05 07:58 50.80245 72.15479 12676 ft 306 kts 328°
2026-05-05 07:58 50.82134 72.13947 12299 ft 304 kts 328°
2026-05-05 07:58 50.84012 72.12423 11904 ft 302 kts 328°
2026-05-05 07:59 50.85880 72.10906 11538 ft 301 kts 328°
2026-05-05 07:59 50.87735 72.09398 11171 ft 299 kts 328°
2026-05-05 07:59 50.89579 72.07897 10805 ft 297 kts 328°
2026-05-05 07:59 50.91406 72.06408 10468 ft 295 kts 328°
2026-05-05 08:00 50.93229 72.04922 10122 ft 294 kts 328°
2026-05-05 08:00 50.95042 72.03447 9842 ft 291 kts 328°
2026-05-05 08:00 50.96850 72.01975 9818 ft 292 kts 328°
2026-05-05 08:00 50.98639 72.00515 9538 ft 288 kts 328°
2026-05-05 08:01 51.00420 71.99057 9097 ft 290 kts 328°
2026-05-05 08:01 51.02181 71.97614 8725 ft 288 kts 328°
2026-05-05 08:01 51.03956 71.96160 8386 ft 286 kts 328°
2026-05-05 08:01 51.05718 71.94714 8121 ft 283 kts 328°
2026-05-05 08:02 51.07489 71.93262 7725 ft 283 kts 328°
2026-05-05 08:02 51.09218 71.91842 7352 ft 283 kts 328°
2026-05-05 08:02 51.10962 71.90410 7036 ft 281 kts 328°
2026-05-05 08:02 51.12673 71.89009 6757 ft 270 kts 326°
2026-05-05 08:03 51.14194 71.87505 6659 ft 245 kts 318°
2026-05-05 08:03 51.15474 71.85797 6240 ft 237 kts 310°
2026-05-05 08:03 51.16631 71.83957 5733 ft 234 kts 308°
2026-05-05 08:03 51.17763 71.82111 5300 ft 229 kts 308°
2026-05-05 08:04 51.18857 71.80333 5284 ft 223 kts 309°
2026-05-05 08:04 51.19847 71.78458 5258 ft 217 kts 293°
2026-05-05 08:04 51.20086 71.76237 5186 ft 195 kts 257°
2026-05-05 08:04 51.19590 71.74360 5191 ft 178 kts 237°
2026-05-05 08:05 51.18829 71.72810 5212 ft 177 kts 230°
2026-05-05 08:05 51.18011 71.71362 5081 ft 175 kts 228°
2026-05-05 08:05 51.17181 71.69968 4832 ft 172 kts 226°
2026-05-05 08:05 51.16340 71.68605 4620 ft 173 kts 226°
2026-05-05 08:06 51.15496 71.67267 4409 ft 167 kts 225°
2026-05-05 08:06 51.14684 71.65996 4188 ft 162 kts 225°
2026-05-05 08:06 51.13904 71.64780 3983 ft 150 kts 225°
2026-05-05 08:06 51.13185 71.63665 3788 ft 141 kts 225°
2026-05-05 08:07 51.12484 71.62578 3606 ft 140 kts 226°
2026-05-05 08:07 51.11789 71.61497 3437 ft 139 kts 226°
2026-05-05 08:07 51.11097 71.60421 3263 ft 139 kts 226°
2026-05-05 08:07 51.10406 71.59346 3097 ft 139 kts 226°
2026-05-05 08:08 51.09718 71.58275 2910 ft 138 kts 226°
2026-05-05 08:08 51.09032 71.57206 2734 ft 138 kts 226°
2026-05-05 08:08 51.08357 71.56148 2546 ft 139 kts 225°
2026-05-05 08:08 51.07670 71.55076 2378 ft 137 kts 224°
2026-05-05 08:09 51.06989 71.54014 2205 ft 137 kts 224°
2026-05-05 08:09 51.06310 71.52956 2016 ft 136 kts 225°
2026-05-05 08:09 51.05629 71.51891 1814 ft 138 kts 225°
2026-05-05 08:09 51.04947 71.50825 1625 ft 139 kts 225°
2026-05-05 08:10 51.04244 71.49728 1483 ft 143 kts 225°
2026-05-05 08:10 51.03531 71.48611 1278 ft 145 kts 224°
2026-05-05 08:10 51.02842 71.47529 1174 ft 125 kts 224°
2026-05-05 08:10 51.02353 71.46770 1174 ft 72 kts 224°
2026-05-05 08:11 51.02113 71.46402 1172 ft 34 kts 224°
2026-05-05 08:11 51.01947 71.46144 1175 ft 33 kts 224°
2026-05-05 08:11 51.01792 71.45903 1176 ft 28 kts 224°
2026-05-05 08:11 51.01697 71.45728 1174 ft 15 kts 259°
2026-05-05 08:12 51.01752 71.45560 1173 ft 19 kts 316°
2026-05-05 08:12 51.01856 71.45542 1176 ft 19 kts 37°
2026-05-05 08:12 51.01957 71.45701 1173 ft 22 kts 47°
2026-05-05 08:12 51.02071 71.45885 1174 ft 25 kts 42°
2026-05-05 08:13 51.02204 71.46080 1176 ft 26 kts 44°
2026-05-05 08:13 51.02299 71.46224 1173 ft 15 kts 36°
2026-05-05 08:13 51.02393 71.46165 1174 ft 18 kts 313°
2026-05-05 08:13 51.02485 71.46090 1173 ft 11 kts 356°
2026-05-05 08:14 51.02563 71.46087 1171 ft 10 kts 358°
2026-05-05 08:14 51.02573 71.46087 1173 ft 2 kts 357°
2026-05-05 08:14 51.02593 71.46085 1172 ft 0 kts 357°